User: anonymous   Login
Location: Unspecified
(0.0000°N, 0.0000°E)
Time: 16:50:11
(UTC+01:00)
Language:

Meteor 2-8 Rocket - Orbit

View from above orbital plane
View from above orbital plane
View from above satellite
View from above satellite

Ground track
Ground track

The orbit data is extracted from the following two-line orbital elements,

1 13114U 82025B   14354.72657910  .00000034  00000-0  17402-4 0  5857
2 13114 082.5383 206.4192 0014799 179.8317 224.6862 13.84635351654555
Epoch (UTC): 20 December 2014 17:26:16
Eccentricity: 0.0014799
inclination: 82.5383°
perigee height: 936 km
apogee height: 958 km
right ascension of ascending node: 206.4192°
argument of perigee: 179.8317°
revolutions per day: 13.84635351
mean anomaly at epoch: 224.6862°
orbit number at epoch: 65455

The dashed part of the orbit path shows where the satellite is in the earth's shadow,  

DLR